Florala, AL

4:44 AM CDT on June 27, 2017 (GMT -0500)
Florala

Weather History for K0J4 - March, 2012

Change the Weather History Date:

Saturday, March 10, 2012

  Actual Average (KCEW) Record (KCEW)
Temperature  
Mean Temperature 60 °F -  
Max Temperature 75 °F 69 °F 82 °F (1997)
Min Temperature 46 °F 44 °F 30 °F (2004)
Degree Days  
Heating Degree Days 4    
Growing Degree Days 10 (Base 50)    
Moisture  
Dew Point 43 °F    
Average Humidity 55    
Maximum Humidity 77    
Minimum Humidity 39    
Precipitation  
Precipitation 0.00 in - - ()
Sea Level Pressure  
Sea Level Pressure 30.29 in    
Wind  
Wind Speed 6 mph (NE)    
Max Wind Speed 12 mph    
Max Gust Speed 16 mph    
Visibility 10 miles    
Events      
Averages and records for this station are not official NWS values.
T = Trace of Precipitation, MM = Missing Value Source: NWS Daily Summary

Daily Weather History Graph

Daily Weather History Graph

Search for Another Location

Airport or City:

Trip Planner

Search our weather history database for the weather conditions in past years. The results will help you decide how hot, cold, wet, or windy it might be!

Date:

Astronomy

Mar. 10, 2012 Rise Set
Actual Time 6:00 AM CST 5:50 PM CST
Civil Twilight 5:36 AM CST 6:14 PM CST
Nautical Twilight 5:08 AM CST 6:42 PM CST
Astronomical Twilight 4:40 AM CST 7:10 PM CST
Moon 8:44 PM CST (3/10) 7:10 AM CST (3/10)
Length of Visible Light 12h 37m
Length of Day
11h 49m
Waning Gibbous, 92% of the Moon is Illuminated
Mar 10
Waning Gibbous
Mar 14
Last Quarter
Mar 22
New
Mar 30
First Quarter
Apr 6
Full

Hourly Weather History & Observations

Time (CST) Temp. Dew Point Humidity Pressure Visibility Wind Dir Wind Speed Gust Speed Precip Events Conditions
12:58 AM 51.1 °F 44.1 °F 77% 30.29 in 10.0 mi North 3.5 mph - N/A   Clear
1:58 AM 50.0 °F 42.1 °F 74% 30.27 in 10.0 mi North 4.6 mph - N/A   Clear
2:58 AM 48.0 °F 39.9 °F 74% 30.26 in 10.0 mi North 3.5 mph - N/A   Clear
3:58 AM 46.9 °F 37.9 °F 71% 30.25 in 10.0 mi NNE 8.1 mph - N/A   Clear
4:58 AM 46.9 °F 36.0 °F 66% 30.26 in 10.0 mi NNE 4.6 mph - N/A   Clear
5:58 AM 46.9 °F 36.0 °F 66% 30.28 in 10.0 mi NNE 3.5 mph - N/A   Clear
6:58 AM 50.0 °F 37.9 °F 63% 30.30 in 10.0 mi NNE 4.6 mph - N/A   Clear
7:50 AM 53.1 °F 37.9 °F 57% 30.32 in 10.0 mi ENE 6.9 mph - N/A   Mostly Cloudy
7:58 AM 54.0 °F 37.9 °F 55% 30.33 in 10.0 mi NE 9.2 mph - N/A   Mostly Cloudy
8:38 AM 55.9 °F 39.9 °F 55% 30.34 in 10.0 mi ENE 10.4 mph - N/A   Overcast
8:58 AM 57.9 °F 42.1 °F 56% 30.35 in 10.0 mi ENE 10.4 mph - N/A   Overcast
9:58 AM 64.9 °F 45.0 °F 48% 30.33 in 10.0 mi ENE 11.5 mph - N/A   Scattered Clouds
10:58 AM 69.1 °F 46.0 °F 44% 30.32 in 10.0 mi East 6.9 mph - N/A   Clear
11:58 AM 71.1 °F 48.0 °F 44% 30.30 in 10.0 mi ENE 9.2 mph - N/A   Clear
12:58 PM 73.0 °F 50.0 °F 44% 30.28 in 10.0 mi East 8.1 mph 16.1 mph N/A   Clear
1:58 PM 73.9 °F 50.0 °F 43% 30.26 in 10.0 mi ESE 8.1 mph - N/A   Clear
2:58 PM 75.9 °F 50.0 °F 40% 30.25 in 10.0 mi ENE 9.2 mph - N/A   Clear
3:58 PM 73.0 °F 46.9 °F 39% 30.24 in 10.0 mi East 5.8 mph - N/A   Clear
4:58 PM 71.1 °F 46.0 °F 41% 30.25 in 10.0 mi ENE 5.8 mph - N/A   Clear
5:58 PM 66.9 °F 45.0 °F 45% 30.26 in 10.0 mi East 3.5 mph - N/A   Clear
6:58 PM 66.0 °F 44.1 °F 45% 30.27 in 10.0 mi Calm Calm - N/A   Clear
7:58 PM 63.0 °F 45.0 °F 52% 30.29 in 10.0 mi Calm Calm - N/A   Clear
8:58 PM 61.0 °F 45.0 °F 56% 30.30 in 10.0 mi NE 4.6 mph - N/A   Clear
9:58 PM 60.1 °F 44.1 °F 55% 30.31 in 10.0 mi NE 3.5 mph - N/A   Clear
10:58 PM 59.0 °F 43.0 °F 55% 30.30 in 10.0 mi ENE 5.8 mph - N/A   Clear
11:58 PM 59.0 °F 43.0 °F 55% 30.30 in 10.0 mi East 5.8 mph - N/A   Clear